Location: Jerusalem
(31.7667°N, 35.2333°E)
Time: 20:35:34
(UTC+02:00)

ISS - Visible Passes

Search period start: 22 February 2018 00:00
Search period end: 04 March 2018 00:00
Orbit: 402 x 407 km, 51.6° (Epoch: 23 February)

Date Brightness Start Highest point End Pass type
(mag) Time Alt. Az. Time Alt. Az. Time Alt. Az.
25 Feb -1.8 05:04:33 10° SSW 05:07:25 29° SE 05:10:17 10° ENE visible
26 Feb -0.9 04:14:14 12° SSE 04:15:19 13° SE 04:17:00 10° E visible
27 Feb -4.0 04:57:45 30° SW 04:59:13 86° NW 05:02:30 10° NE visible
28 Feb -1.6 04:08:16 26° E 04:08:16 26° E 04:10:04 10° ENE visible
28 Feb -1.9 05:41:25 10° WNW 05:43:34 16° NW 05:45:44 10° N visible
01 Mar -2.7 04:51:16 29° NNW 04:51:16 29° NNW 04:54:02 10° NNE visible
02 Mar -0.9 04:01:24 14° NE 04:01:24 14° NE 04:02:00 10° NE visible
03 Mar -1.4 04:44:04 12° NNW 04:44:04 12° NNW 04:44:53 10° N visible
